TimeHST,TemperatureF,Dew PointF,Humidity,Sea Level PressureIn,VisibilityMPH,Wind Direction,Wind SpeedMPH,Gust SpeedMPH,PrecipitationIn,Events,Conditions,WindDirDegrees,DateUTC
12:56 AM,48.7,45.9,90,30.35,12.0,ESE,5.8,-,N/A,,Clear,120,2013-09-29 10:56:00
1:56 AM,47.5,40.3,76,30.34,12.0,ESE,5.8,-,N/A,,Clear,120,2013-09-29 11:56:00
2:56 AM,46.6,38.1,72,30.32,12.0,ESE,5.8,-,N/A,,Clear,120,2013-09-29 12:56:00
3:56 AM,47.8,41.4,78,30.31,12.0,ESE,6.9,-,N/A,,Clear,120,2013-09-29 13:56:00
4:56 AM,45.7,36.9,71,30.31,12.0,SE,3.5,-,N/A,,Clear,130,2013-09-29 14:56:00
5:56 AM,47.7,45.9,93,30.33,12.0,ESE,4.6,-,N/A,,Clear,110,2013-09-29 15:56:00
6:46 AM,48.2,48.2,100,30.33,2.2,SE,8.1,-,N/A,,Scattered Clouds,130,2013-09-29 16:46:00
6:56 AM,50.0,49.5,98,30.33,7.0,SE,6.9,16.1,N/A,,Partly Cloudy,140,2013-09-29 16:56:00
7:56 AM,55.2,51.3,87,30.34,11.0,SE,9.2,18.4,N/A,,Clear,140,2013-09-29 17:56:00
8:56 AM,62.2,51.1,67,30.35,12.0,SSE,9.2,16.1,N/A,,Clear,160,2013-09-29 18:56:00
9:35 AM,62.6,53.6,72,30.36,12.0,South,12.7,19.6,N/A,,Clear,190,2013-09-29 19:35:00
9:57 AM,62.8,52.9,70,30.35,12.0,South,12.7,20.7,N/A,,Partly Cloudy,190,2013-09-29 19:57:00
10:31 AM,66.2,53.6,64,30.35,12.0,SE,15.0,21.9,N/A,,Partly Cloudy,140,2013-09-29 20:31:00
10:56 AM,63.0,52.9,70,30.35,12.0,South,6.9,16.1,N/A,,Mostly Cloudy,170,2013-09-29 20:56:00
11:11 AM,62.6,53.6,72,30.35,12.0,SSW,5.8,13.8,N/A,,Mostly Cloudy,200,2013-09-29 21:11:00
11:16 AM,64.4,53.6,68,30.34,12.0,SSE,10.4,16.1,N/A,,Mostly Cloudy,160,2013-09-29 21:16:00
11:21 AM,64.4,53.6,68,30.34,12.0,South,12.7,19.6,N/A,,Mostly Cloudy,190,2013-09-29 21:21:00
11:56 AM,68.2,52.5,57,30.33,12.0,ESE,10.4,20.7,N/A,,Mostly Cloudy,110,2013-09-29 21:56:00
12:08 PM,66.2,51.8,60,30.31,8.0,West,18.4,29.9,N/A,,Mostly Cloudy,280,2013-09-29 22:08:00
12:13 PM,64.4,51.8,64,30.31,7.0,West,16.1,29.9,N/A,,Mostly Cloudy,280,2013-09-29 22:13:00
12:17 PM,64.4,51.8,64,30.31,8.0,West,13.8,23.0,N/A,,Mostly Cloudy,260,2013-09-29 22:17:00
12:18 PM,64.4,51.8,64,30.31,9.0,WSW,13.8,23.0,N/A,,Mostly Cloudy,250,2013-09-29 22:18:00
12:56 PM,61.7,51.8,70,30.32,12.0,WSW,6.9,-,N/A,,Overcast,250,2013-09-29 22:56:00
1:56 PM,61.5,53.6,75,30.29,12.0,WSW,9.2,17.3,N/A,,Mostly Cloudy,240,2013-09-29 23:56:00
2:56 PM,63.0,54.7,74,30.28,12.0,WSW,8.1,15.0,N/A,,Mostly Cloudy,250,2013-09-30 00:56:00
3:06 PM,64.4,55.4,73,30.28,12.0,WSW,9.2,16.1,N/A,,Mostly Cloudy,250,2013-09-30 01:06:00
3:36 PM,62.6,51.8,68,30.28,12.0,SSW,6.9,15.0,N/A,,Mostly Cloudy,200,2013-09-30 01:36:00
3:46 PM,62.6,51.8,68,30.27,12.0,South,6.9,-,N/A,,Mostly Cloudy,170,2013-09-30 01:46:00
3:56 PM,64.8,52.0,63,30.27,12.0,South,10.4,15.0,N/A,,Scattered Clouds,170,2013-09-30 01:56:00
4:46 PM,62.6,50.0,63,30.27,12.0,SSE,12.7,19.6,N/A,,Mostly Cloudy,160,2013-09-30 02:46:00
4:56 PM,61.9,50.5,66,30.27,12.0,SE,13.8,18.4,N/A,,Mostly Cloudy,140,2013-09-30 02:56:00
5:31 PM,59.0,50.0,72,30.28,12.0,SSE,13.8,20.7,N/A,,Mostly Cloudy,150,2013-09-30 03:31:00
5:57 PM,58.3,49.1,71,30.29,12.0,SSE,12.7,23.0,N/A,,Mostly Cloudy,150,2013-09-30 03:57:00
6:56 PM,55.4,49.3,80,30.31,12.0,SSE,10.4,-,N/A,,Clear,160,2013-09-30 04:56:00
7:25 PM,55.4,50.0,82,30.31,12.0,SE,12.7,20.7,N/A,,Clear,140,2013-09-30 05:25:00
7:56 PM,54.7,48.7,80,30.33,12.0,SE,8.1,16.1,N/A,,Clear,130,2013-09-30 05:56:00
8:56 PM,52.5,48.4,86,30.35,12.0,ESE,8.1,18.4,N/A,,Clear,120,2013-09-30 06:56:00
9:56 PM,51.8,46.4,82,30.35,12.0,North,3.5,-,N/A,,Clear,360,2013-09-30 07:56:00
10:56 PM,51.1,40.8,68,30.34,12.0,ESE,4.6,-,N/A,,Clear,120,2013-09-30 08:56:00
11:56 PM,50.2,40.6,70,30.32,12.0,East,4.6,-,N/A,,Clear,90,2013-09-30 09:56:00